TimeCDT,TemperatureF,Dew PointF,Humidity,Sea Level PressureIn,VisibilityMPH,Wind Direction,Wind SpeedMPH,Gust SpeedMPH,PrecipitationIn,Events,Conditions,WindDirDegrees,DateUTC
12:15 AM,64.4,53.6,68,30.19,10.0,South,6.9,-,N/A,,Clear,170,2013-07-14 05:15:00
12:35 AM,64.4,57.2,77,30.20,10.0,South,5.8,-,N/A,,Clear,170,2013-07-14 05:35:00
12:55 AM,64.4,57.2,77,30.20,10.0,South,5.8,-,N/A,,Clear,180,2013-07-14 05:55:00
1:15 AM,64.4,57.2,77,30.21,10.0,South,4.6,-,N/A,,Clear,180,2013-07-14 06:15:00
1:35 AM,64.4,59.0,83,30.21,10.0,SSE,9.2,-,N/A,,Clear,160,2013-07-14 06:35:00
1:55 AM,66.2,57.2,73,30.21,10.0,SSE,8.1,-,N/A,,Clear,160,2013-07-14 06:55:00
2:15 AM,66.2,57.2,73,30.21,10.0,South,6.9,-,N/A,,Clear,170,2013-07-14 07:15:00
2:35 AM,64.4,57.2,77,30.21,10.0,SSE,5.8,-,N/A,,Clear,160,2013-07-14 07:35:00
2:55 AM,64.4,57.2,77,30.21,10.0,South,4.6,-,N/A,,Clear,170,2013-07-14 07:55:00
3:15 AM,64.4,57.2,77,30.21,10.0,South,4.6,-,N/A,,Clear,180,2013-07-14 08:15:00
3:35 AM,62.6,57.2,82,30.21,10.0,South,4.6,-,N/A,,Clear,170,2013-07-14 08:35:00
3:55 AM,62.6,57.2,82,30.21,10.0,South,5.8,-,N/A,,Clear,170,2013-07-14 08:55:00
4:15 AM,64.4,57.2,77,30.21,10.0,South,5.8,-,N/A,,Clear,170,2013-07-14 09:15:00
4:35 AM,64.4,55.4,73,30.21,10.0,South,5.8,-,N/A,,Clear,170,2013-07-14 09:35:00
4:55 AM,64.4,55.4,73,30.21,10.0,South,4.6,-,N/A,,Clear,170,2013-07-14 09:55:00
5:15 AM,64.4,55.4,73,30.21,10.0,South,4.6,-,N/A,,Clear,170,2013-07-14 10:15:00
5:35 AM,64.4,55.4,73,30.21,10.0,SSE,5.8,-,N/A,,Clear,160,2013-07-14 10:35:00
5:55 AM,64.4,57.2,77,30.22,10.0,South,5.8,-,N/A,,Clear,170,2013-07-14 10:55:00
6:15 AM,64.4,59.0,83,30.22,10.0,South,4.6,-,N/A,,Clear,170,2013-07-14 11:15:00
6:35 AM,66.2,60.8,83,30.22,10.0,South,5.8,-,N/A,,Clear,170,2013-07-14 11:35:00
6:55 AM,68.0,60.8,78,30.22,10.0,South,6.9,-,N/A,,Clear,170,2013-07-14 11:55:00
7:15 AM,69.8,60.8,73,30.22,10.0,South,6.9,-,N/A,,Clear,180,2013-07-14 12:15:00
7:35 AM,69.8,62.6,78,30.23,10.0,South,6.9,-,N/A,,Clear,170,2013-07-14 12:35:00
7:55 AM,71.6,62.6,73,30.23,10.0,South,5.8,-,N/A,,Clear,170,2013-07-14 12:55:00
8:15 AM,73.4,62.6,69,30.24,10.0,South,6.9,-,N/A,,Clear,170,2013-07-14 13:15:00
8:35 AM,73.4,64.4,73,30.24,10.0,South,8.1,-,N/A,,Clear,170,2013-07-14 13:35:00
8:55 AM,75.2,64.4,69,30.24,10.0,South,6.9,-,N/A,,Clear,170,2013-07-14 13:55:00
9:15 AM,75.2,64.4,69,30.24,10.0,South,6.9,-,N/A,,Clear,180,2013-07-14 14:15:00
9:35 AM,77.0,64.4,65,30.25,10.0,South,8.1,-,N/A,,Clear,170,2013-07-14 14:35:00
9:55 AM,78.8,66.2,65,30.25,10.0,South,6.9,-,N/A,,Clear,180,2013-07-14 14:55:00
10:15 AM,78.8,66.2,65,30.25,10.0,SSE,6.9,-,N/A,,Clear,160,2013-07-14 15:15:00
10:35 AM,78.8,66.2,65,30.25,10.0,South,4.6,-,N/A,,Clear,180,2013-07-14 15:35:00
10:55 AM,80.6,66.2,61,30.25,10.0,South,5.8,-,N/A,,Clear,170,2013-07-14 15:55:00
11:15 AM,80.6,66.2,61,30.25,10.0,South,10.4,-,N/A,,Clear,180,2013-07-14 16:15:00
11:35 AM,80.6,66.2,61,30.26,10.0,South,10.4,-,N/A,,Clear,180,2013-07-14 16:35:00
11:55 AM,80.6,66.2,61,30.26,10.0,South,11.5,-,N/A,,Partly Cloudy,180,2013-07-14 16:55:00
12:15 PM,80.6,66.2,61,30.26,10.0,South,12.7,-,N/A,,Clear,180,2013-07-14 17:15:00
12:35 PM,80.6,66.2,61,30.26,10.0,SSE,13.8,-,N/A,,Clear,160,2013-07-14 17:35:00
12:55 PM,80.6,66.2,61,30.25,10.0,South,11.5,-,N/A,,Clear,180,2013-07-14 17:55:00
1:15 PM,80.6,64.4,58,30.25,10.0,South,10.4,-,N/A,,Clear,180,2013-07-14 18:15:00
1:35 PM,80.6,66.2,61,30.25,10.0,SSE,10.4,-,N/A,,Clear,150,2013-07-14 18:35:00
1:55 PM,82.4,66.2,58,30.25,10.0,SSE,10.4,-,N/A,,Clear,160,2013-07-14 18:55:00
2:15 PM,82.4,66.2,58,30.25,10.0,South,11.5,-,N/A,,Clear,170,2013-07-14 19:15:00
2:35 PM,82.4,66.2,58,30.25,10.0,South,12.7,16.1,N/A,,Clear,170,2013-07-14 19:35:00
2:55 PM,82.4,66.2,58,30.24,10.0,SSE,15.0,-,N/A,,Clear,150,2013-07-14 19:55:00
3:15 PM,82.4,66.2,58,30.24,10.0,South,9.2,-,N/A,,Clear,170,2013-07-14 20:15:00
3:35 PM,82.4,66.2,58,30.24,10.0,South,12.7,16.1,N/A,,Clear,180,2013-07-14 20:35:00
3:55 PM,82.4,66.2,58,30.23,10.0,South,13.8,-,N/A,,Clear,180,2013-07-14 20:55:00
4:15 PM,82.4,66.2,58,30.23,10.0,SSE,13.8,-,N/A,,Clear,160,2013-07-14 21:15:00
4:55 PM,80.6,64.4,58,30.23,10.0,SSE,10.4,-,N/A,,Clear,150,2013-07-14 21:55:00
5:15 PM,80.6,66.2,61,30.23,10.0,South,8.1,-,N/A,,Clear,170,2013-07-14 22:15:00
5:35 PM,80.6,66.2,61,30.23,10.0,SSE,4.6,-,N/A,,Clear,150,2013-07-14 22:35:00
5:55 PM,80.6,66.2,61,30.23,10.0,SSE,8.1,-,N/A,,Clear,160,2013-07-14 22:55:00
6:15 PM,80.6,66.2,61,30.23,10.0,SSE,9.2,-,N/A,,Clear,160,2013-07-14 23:15:00
6:35 PM,80.6,66.2,61,30.22,10.0,South,6.9,-,N/A,,Clear,170,2013-07-14 23:35:00
6:55 PM,78.8,66.2,65,30.23,10.0,South,5.8,-,N/A,,Clear,180,2013-07-14 23:55:00
7:15 PM,78.8,64.4,61,30.23,10.0,South,4.6,-,N/A,,Clear,170,2013-07-15 00:15:00
7:35 PM,77.0,64.4,65,30.23,10.0,SSE,6.9,-,N/A,,Clear,160,2013-07-15 00:35:00
7:55 PM,75.2,64.4,69,30.23,10.0,South,5.8,-,N/A,,Clear,170,2013-07-15 00:55:00
8:15 PM,75.2,64.4,69,30.23,10.0,SSE,6.9,-,N/A,,Clear,160,2013-07-15 01:15:00
8:35 PM,73.4,64.4,73,30.23,10.0,SE,5.8,-,N/A,,Clear,140,2013-07-15 01:35:00
8:55 PM,71.6,64.4,78,30.24,10.0,SSE,4.6,-,N/A,,Clear,160,2013-07-15 01:55:00
9:15 PM,69.8,64.4,83,30.24,10.0,SSE,5.8,-,N/A,,Clear,160,2013-07-15 02:15:00
9:35 PM,69.8,64.4,83,30.25,10.0,South,4.6,-,N/A,,Clear,180,2013-07-15 02:35:00
9:55 PM,69.8,64.4,83,30.24,10.0,SSE,4.6,-,N/A,,Clear,150,2013-07-15 02:55:00
10:15 PM,69.8,64.4,83,30.24,10.0,SSE,5.8,-,N/A,,Clear,160,2013-07-15 03:15:00
10:35 PM,68.0,64.4,88,30.25,10.0,SSE,5.8,-,N/A,,Clear,150,2013-07-15 03:35:00
10:55 PM,68.0,64.4,88,30.25,10.0,SSE,5.8,-,N/A,,Clear,160,2013-07-15 03:55:00
11:15 PM,68.0,66.2,94,30.25,10.0,SSE,6.9,-,N/A,,Clear,160,2013-07-15 04:15:00
11:35 PM,68.0,64.4,88,30.25,10.0,SSE,6.9,-,N/A,,Clear,160,2013-07-15 04:35:00
11:55 PM,68.0,64.4,88,30.25,10.0,SSE,6.9,-,N/A,,Clear,160,2013-07-15 04:55:00